• In Uzbekistan
  • List of Countries
  • For 7 days
  • Water Temperature
  • Satellite Maps
  • Weather Map
  • Weather Widgets
  • user-avatar
    Login

    Hourly Weather Klagenfurt

    Today, 4 December, Sunday

    Time Temperature Precipitation Wind Pressure Humidity
    00:00 -2°C° 0 mm 1 mps 693 mmHg 77%
    01:00 -2°C° 0 mm 1 mps 693 mmHg 71%
    02:00 -2°C° 0 mm 1 mps 693 mmHg 70%
    03:00 -2°C° 0 mm 1 mps 693 mmHg 69%
    04:00 -2°C° 0 mm 1 mps 693 mmHg 68%
    05:00 -3°C° 0 mm 1 mps 693 mmHg 67%
    06:00 -3°C° 0 mm 1 mps 693 mmHg 67%
    07:00 -3°C° 0 mm 1 mps 693 mmHg 66%
    08:00 -1°C° 0 mm 1 mps 694 mmHg 62%
    09:00 0°C° 0 mm 1 mps 694 mmHg 57%
    10:00 +1°C° 0 mm 1 mps 695 mmHg 52%
    11:00 +2°C° 0 mm 1 mps 695 mmHg 51%
    12:00 +3°C° 0 mm 1 mps 695 mmHg 50%
    13:00 +4°C° 0 mm 1 mps 695 mmHg 49%
    14:00 +2°C° 0 mm 1 mps 695 mmHg 54%
    15:00 +1°C° 0 mm 1 mps 695 mmHg 60%
    16:00 0°C° 0 mm 1 mps 694 mmHg 66%
    17:00 -1°C° 0 mm 1 mps 695 mmHg 67%
    18:00 -1°C° 0 mm 1 mps 695 mmHg 68%
    19:00 -2°C° 0 mm 1 mps 695 mmHg 69%
    20:00 -2°C° 0 mm 1 mps 695 mmHg 69%
    21:00 -2°C° 0 mm 1 mps 695 mmHg 70%
    22:00 -2°C° 0 mm 1 mps 696 mmHg 70%
    23:00 -2°C° 0 mm 1 mps 696 mmHg 71%

    Tomorrow, 5 December, Monday

    Time Temperature Precipitation Wind Pressure Humidity
    00:00 -2°C° 0 mm 1 mps 696 mmHg 71%
    01:00 -2°C° 0 mm 1 mps 696 mmHg 71%
    02:00 -2°C° 0 mm 1 mps 696 mmHg 71%
    03:00 -2°C° 0 mm 1 mps 695 mmHg 71%
    04:00 -2°C° 0 mm 1 mps 695 mmHg 71%
    05:00 -2°C° 0 mm 1 mps 695 mmHg 72%
    06:00 -2°C° 0 mm 1 mps 695 mmHg 73%
    07:00 -2°C° 0 mm 1 mps 695 mmHg 74%
    08:00 -1°C° 0 mm 1 mps 695 mmHg 69%
    09:00 +1°C° 0 mm 1 mps 696 mmHg 64%
    10:00 +2°C° 0 mm 1 mps 696 mmHg 60%
    11:00 +3°C° 0 mm 1 mps 696 mmHg 60%
    12:00 +4°C° 0 mm 1 mps 696 mmHg 60%
    13:00 +5°C° 0 mm 1 mps 696 mmHg 60%
    14:00 +3°C° 0 mm 1 mps 695 mmHg 69%
    15:00 +2°C° 0 mm 1 mps 695 mmHg 79%
    16:00 0°C° 0 mm 1 mps 694 mmHg 88%
    17:00 0°C° 0 mm 1 mps 694 mmHg 90%
    18:00 -1°C° 0 mm 1 mps 694 mmHg 91%
    19:00 -1°C° 0 mm 1 mps 694 mmHg 92%
    20:00 -1°C° 0 mm 1 mps 695 mmHg 91%
    21:00 -1°C° 0 mm 1 mps 695 mmHg 91%
    22:00 -1°C° 0 mm 1 mps 695 mmHg 90%
    23:00 -1°C° 0 mm 1 mps 695 mmHg 90%

    Day after tomorrow, 6 December, Tuesday

    Time Temperature Precipitation Wind Pressure Humidity
    00:00 -1°C° 0 mm 1 mps 695 mmHg 89%
    01:00 -1°C° 0 mm 1 mps 695 mmHg 88%
    02:00 -1°C° 0 mm 1 mps 695 mmHg 86%
    03:00 -1°C° 0 mm 1 mps 695 mmHg 85%
    04:00 -1°C° 0 mm 1 mps 695 mmHg 83%
    05:00 -1°C° 0 mm 1 mps 695 mmHg 81%
    06:00 -1°C° 0 mm 1 mps 695 mmHg 79%
    07:00 -2°C° 0 mm 1 mps 695 mmHg 77%
    08:00 0°C° 0 mm 1 mps 695 mmHg 70%
    09:00 +2°C° 0 mm 1 mps 696 mmHg 64%
    10:00 +3°C° 0 mm 0 mps 697 mmHg 57%
    11:00 +4°C° 0 mm 0 mps 697 mmHg 55%
    12:00 +5°C° 0 mm 0 mps 697 mmHg 53%
    13:00 +6°C° 0 mm 0 mps 697 mmHg 51%
    14:00 +3°C° 0 mm 0 mps 696 mmHg 57%
    15:00 +1°C° 0 mm 0 mps 696 mmHg 64%
    16:00 -1°C° 0 mm 0 mps 695 mmHg 70%
    17:00 -1°C° 0 mm 0 mps 696 mmHg 70%
    18:00 -1°C° 0 mm 1 mps 696 mmHg 70%
    19:00 -1°C° 0 mm 1 mps 696 mmHg 70%
    20:00 -1°C° 0 mm 1 mps 696 mmHg 71%
    21:00 -1°C° 0 mm 1 mps 697 mmHg 71%
    22:00 -1°C° 0 mm 1 mps 697 mmHg 72%
    23:00 -1°C° 0 mm 1 mps 697 mmHg 72%

    7 December, Wednesday

    Time Temperature Precipitation Wind Pressure Humidity
    00:00 -1°C° 0 mm 1 mps 697 mmHg 72%
    01:00 -1°C° 0 mm 1 mps 697 mmHg 72%
    02:00 -1°C° 0 mm 1 mps 697 mmHg 73%
    03:00 -2°C° 0 mm 1 mps 697 mmHg 74%
    04:00 -2°C° 0 mm 1 mps 697 mmHg 74%
    05:00 -2°C° 0 mm 1 mps 697 mmHg 75%
    06:00 -2°C° 0 mm 1 mps 698 mmHg 77%
    07:00 -2°C° 0 mm 1 mps 698 mmHg 78%
    08:00 -1°C° 0 mm 1 mps 698 mmHg 72%
    09:00 +1°C° 0 mm 1 mps 699 mmHg 67%
    10:00 +2°C° 0 mm 1 mps 700 mmHg 62%
    11:00 +3°C° 0 mm 1 mps 700 mmHg 60%
    12:00 +4°C° 0 mm 1 mps 700 mmHg 58%
    13:00 +5°C° 0 mm 1 mps 700 mmHg 56%
    14:00 +3°C° 0 mm 1 mps 699 mmHg 64%
    15:00 +1°C° 0 mm 1 mps 699 mmHg 72%
    16:00 -1°C° 0 mm 1 mps 698 mmHg 81%
    17:00 -1°C° 0 mm 1 mps 699 mmHg 81%
    18:00 -1°C° 0 mm 1 mps 699 mmHg 81%
    19:00 -2°C° 0 mm 1 mps 699 mmHg 82%
    20:00 -2°C° 0 mm 1 mps 699 mmHg 80%
    21:00 -2°C° 0 mm 1 mps 699 mmHg 78%
    22:00 -2°C° 0 mm 1 mps 699 mmHg 76%
    23:00 -2°C° 0 mm 1 mps 699 mmHg 75%

    8 December, Thursday

    Time Temperature Precipitation Wind Pressure Humidity
    00:00 -2°C° 0 mm 1 mps 699 mmHg 73%
    01:00 -2°C° 0 mm 1 mps 699 mmHg 72%
    02:00 -2°C° 0 mm 1 mps 699 mmHg 69%
    03:00 -2°C° 0 mm 1 mps 698 mmHg 67%
    04:00 -2°C° 0 mm 1 mps 698 mmHg 65%
    05:00 -2°C° 0 mm 1 mps 698 mmHg 63%
    06:00 -2°C° 0 mm 1 mps 698 mmHg 61%
    07:00 -2°C° 0 mm 1 mps 698 mmHg 59%
    08:00 0°C° 0 mm 1 mps 698 mmHg 53%
    09:00 +2°C° 0 mm 1 mps 699 mmHg 47%
    10:00 +4°C° 0 mm 1 mps 700 mmHg 41%
    11:00 +5°C° 0 mm 1 mps 699 mmHg 41%
    12:00 +6°C° 0 mm 1 mps 699 mmHg 41%
    13:00 +7°C° 0 mm 1 mps 699 mmHg 41%
    14:00 +5°C° 0 mm 1 mps 698 mmHg 46%
    15:00 +3°C° 0 mm 1 mps 698 mmHg 52%
    16:00 +1°C° 0 mm 1 mps 697 mmHg 57%
    17:00 +1°C° 0 mm 1 mps 697 mmHg 56%
    18:00 +1°C° 0 mm 1 mps 697 mmHg 56%
    19:00 +1°C° 0 mm 1 mps 698 mmHg 55%
    20:00 +1°C° 0 mm 1 mps 698 mmHg 53%
    21:00 +1°C° 0 mm 1 mps 698 mmHg 52%
    22:00 +1°C° 0 mm 1 mps 698 mmHg 51%
    23:00 +1°C° 0 mm 1 mps 698 mmHg 51%

    9 December, Friday

    Time Temperature Precipitation Wind Pressure Humidity
    00:00 +1°C° 0 mm 1 mps 697 mmHg 51%
    01:00 +1°C° 0 mm 1 mps 697 mmHg 51%
    02:00 +1°C° 0 mm 1 mps 697 mmHg 52%
    03:00 +1°C° 0 mm 1 mps 697 mmHg 53%
    04:00 0°C° 0 mm 1 mps 696 mmHg 54%
    05:00 0°C° 0 mm 1 mps 696 mmHg 54%
    06:00 0°C° 0 mm 1 mps 696 mmHg 55%
    07:00 0°C° 0 mm 1 mps 696 mmHg 56%
    08:00 +2°C° 0 mm 1 mps 696 mmHg 54%
    09:00 +3°C° 0 mm 1 mps 697 mmHg 52%
    10:00 +5°C° 0 mm 1 mps 697 mmHg 50%
    11:00 +6°C° 0 mm 1 mps 697 mmHg 51%
    12:00 +6°C° 0 mm 1 mps 696 mmHg 52%
    13:00 +7°C° 0 mm 1 mps 696 mmHg 54%
    14:00 +6°C° 0 mm 1 mps 696 mmHg 59%
    15:00 +4°C° 0 mm 1 mps 695 mmHg 65%
    16:00 +3°C° 0 mm 1 mps 695 mmHg 71%
    17:00 +2°C° 0 mm 1 mps 695 mmHg 71%
    18:00 +2°C° 0 mm 1 mps 695 mmHg 71%
    19:00 +2°C° 0 mm 1 mps 695 mmHg 71%
    20:00 +2°C° 0 mm 1 mps 695 mmHg 71%
    21:00 +2°C° 0 mm 1 mps 695 mmHg 71%
    22:00 +2°C° 0 mm 1 mps 695 mmHg 72%
    23:00 +2°C° 0 mm 1 mps 694 mmHg 72%
    Show more